Tracking 18942 objects as of 17-Jan-2018
HD Live streaming from Space Station
objects crossing your sky now

RADIO 6

Track RADIO 6 now!
10-day predictions
RADIO 6 is classified as:


NORAD ID: 13002
Int'l Code: 1981-120F
Perigee: 1,585.9 km
Apogee: 1,667.8 km
Inclination: 83.0 °
Period: 118.6 minutes
Semi major axis: 7997 km
RCS: 0.8643 m2 (medium)
Launch date: December 17, 1981
Source: Commonwealth of Independent States (former USSR) (CIS)
Launch site: PLESETSK MISSILE AND SPACE COMPLEX (PKMTR)
Uplink (MHz):
Downlink (MHz):
Beacon (MHz):
Mode:
Call sign:
Status:

aabbcc
Your satellite tracking list
Your tracking list is empty




NASA's NSSDC Master Catalog

Two Line Element Set (TLE):
1 13002U 81120F   18016.57054729  .00000017  00000-0  84230-4 0  9992
2 13002  82.9580 198.1087 0051177 341.8709  78.9285 12.13793245598768
Source of the keplerian elements: AFSPC